Middletown, OH

7:25 PM EDT on July 26, 2017 (GMT -0400)
Hook Field Municipal

Weather History for KMWO - December, 2013

Change the Weather History Date:

Friday, December 20, 2013

  Actual Average (KFFO) Record (KFFO)
Temperature  
Mean Temperature 52 °F -  
Max Temperature 59 °F 35 °F 59 °F (2013)
Min Temperature 46 °F 20 °F 1 °F (2004)
Degree Days  
Heating Degree Days 12    
Growing Degree Days 2 (Base 50)    
Moisture  
Dew Point 44 °F    
Average Humidity 70    
Maximum Humidity 86    
Minimum Humidity 52    
Precipitation  
Precipitation 0.00 in - - ()
Sea Level Pressure  
Sea Level Pressure 29.90 in    
Wind  
Wind Speed 10 mph (SSW)    
Max Wind Speed 17 mph    
Max Gust Speed 23 mph    
Visibility 9 miles    
Events Rain    
Averages and records for this station are not official NWS values.
T = Trace of Precipitation, MM = Missing Value Source: NWS Daily Summary

Daily Weather History Graph

Daily Weather History Graph

Search for Another Location

Airport or City:

Trip Planner

Search our weather history database for the weather conditions in past years. The results will help you decide how hot, cold, wet, or windy it might be!

Date:

Astronomy

Dec. 20, 2013 Rise Set
Actual Time 7:54 AM EST 5:16 PM EST
Civil Twilight 7:23 AM EST 5:47 PM EST
Nautical Twilight 6:49 AM EST 6:20 PM EST
Astronomical Twilight 6:17 AM EST 6:53 PM EST
Moon 8:35 PM EST (12/20) 9:48 AM EST (12/20)
Length of Visible Light 10h 23m
Length of Day
9h 22m
Waning Gibbous, 90% of the Moon is Illuminated
Dec 20
Waning Gibbous
Dec 25
Last Quarter
Jan 1
New
Jan 7
First Quarter
Jan 15
Full

Hourly Weather History & Observations

Time (EST) Temp. Windchill Dew Point Humidity Pressure Visibility Wind Dir Wind Speed Gust Speed Precip Events Conditions
12:15 AM 46.4 °F 42.9 °F 36.7 °F 69% 29.96 in 10.0 mi South 6.9 mph - N/A   Overcast
12:35 AM 47.8 °F - 34.2 °F 59% 29.96 in 10.0 mi South 6.9 mph - N/A   Overcast
12:55 AM 48.2 °F - 34.3 °F 59% 29.96 in 10.0 mi South 4.6 mph - N/A   Overcast
1:15 AM 47.7 °F - 36.3 °F 65% 29.95 in 10.0 mi South 4.6 mph - N/A   Overcast
1:35 AM 48.9 °F - 34.2 °F 57% 29.94 in 10.0 mi South 8.1 mph - N/A   Overcast
1:55 AM 49.8 °F - 34.3 °F 55% 29.94 in 10.0 mi South 6.9 mph - N/A   Overcast
2:15 AM 48.9 °F - 33.8 °F 56% 29.94 in 10.0 mi SSW 6.9 mph - N/A   Overcast
2:35 AM 51.6 °F - 35.4 °F 54% 29.94 in 10.0 mi South 8.1 mph - N/A   Overcast
2:55 AM 49.8 °F - 34.7 °F 56% 29.95 in 10.0 mi SSW 9.2 mph - N/A   Overcast
3:15 AM 50.5 °F - 35.2 °F 56% 29.95 in 10.0 mi SSW 9.2 mph - N/A   Overcast
3:35 AM 50.7 °F - 35.2 °F 55% 29.94 in 10.0 mi SSW 8.1 mph - N/A   Overcast
3:55 AM 52.7 °F - 36.1 °F 53% 29.94 in 10.0 mi South 6.9 mph - N/A   Overcast
4:15 AM 52.7 °F - 35.2 °F 52% 29.94 in 10.0 mi South 9.2 mph - N/A   Overcast
4:35 AM 52.5 °F - 35.8 °F 53% 29.94 in 10.0 mi South 8.1 mph - N/A   Overcast
4:55 AM 52.5 °F - 36.1 °F 54% 29.93 in 10.0 mi South 11.5 mph - N/A   Overcast
5:15 AM 52.7 °F - 36.7 °F 55% 29.92 in 10.0 mi South 8.1 mph 16.1 mph N/A   Overcast
5:35 AM 51.3 °F - 36.7 °F 57% 29.92 in 10.0 mi South 9.2 mph - N/A   Overcast
5:55 AM 52.7 °F - 37.8 °F 57% 29.92 in 10.0 mi SSW 11.5 mph - N/A   Overcast
6:15 AM 52.7 °F - 38.1 °F 58% 29.91 in 10.0 mi SSW 13.8 mph 17.3 mph N/A   Overcast
6:35 AM 52.7 °F - 38.1 °F 58% 29.91 in 10.0 mi SSW 15.0 mph - N/A   Overcast
6:55 AM 52.7 °F - 37.6 °F 56% 29.91 in 10.0 mi SSW 11.5 mph - N/A   Overcast
7:15 AM 52.7 °F - 37.0 °F 55% 29.91 in 10.0 mi SSW 10.4 mph - N/A   Overcast
7:35 AM 52.7 °F - 36.9 °F 55% 29.91 in 10.0 mi SSW 13.8 mph 21.9 mph N/A   Overcast
7:55 AM 52.7 °F - 36.9 °F 55% 29.92 in 10.0 mi SSW 15.0 mph 20.7 mph N/A   Overcast
8:15 AM 52.7 °F - 36.9 °F 55% 29.92 in 10.0 mi SSW 13.8 mph - N/A   Overcast
8:35 AM 52.7 °F - 38.3 °F 58% 29.92 in 10.0 mi SSW 12.7 mph 17.3 mph N/A   Overcast
8:55 AM 52.7 °F - 39.6 °F 61% 29.92 in 10.0 mi SSW 11.5 mph - N/A   Overcast
9:15 AM 52.7 °F - 39.4 °F 61% 29.92 in 10.0 mi SSW 11.5 mph - N/A   Overcast
9:35 AM 52.7 °F - 39.0 °F 60% 29.92 in 10.0 mi SSW 17.3 mph 23.0 mph N/A   Overcast
9:55 AM 52.7 °F - 39.6 °F 61% 29.93 in 10.0 mi SSW 10.4 mph - N/A   Overcast
10:15 AM 52.7 °F - 40.1 °F 62% 29.93 in 10.0 mi South 15.0 mph 18.4 mph N/A   Overcast
10:35 AM 52.7 °F - 40.1 °F 62% 29.94 in 10.0 mi SSW 12.7 mph 18.4 mph N/A   Overcast
10:55 AM 52.7 °F - 40.5 °F 63% 29.93 in 10.0 mi South 11.5 mph 17.3 mph N/A   Overcast
11:15 AM 52.7 °F - 40.8 °F 64% 29.92 in 10.0 mi SSW 12.7 mph 19.6 mph N/A   Overcast
11:35 AM 52.7 °F - 41.4 °F 65% 29.92 in 10.0 mi SSW 11.5 mph 21.9 mph N/A   Overcast
11:55 AM 54.0 °F - 43.0 °F 66% 29.91 in 10.0 mi SSW 12.7 mph 18.4 mph N/A   Overcast
12:15 PM 54.1 °F - 43.9 °F 68% 29.90 in 10.0 mi SSW 11.5 mph 17.3 mph N/A   Overcast
12:35 PM 55.4 °F - 45.1 °F 68% 29.89 in 10.0 mi SSW 11.5 mph 20.7 mph N/A   Overcast
12:55 PM 55.4 °F - 45.9 °F 70% 29.88 in 10.0 mi SSW 15.0 mph 20.7 mph N/A   Overcast
1:15 PM 52.7 °F - 45.9 °F 78% 29.87 in 7.0 mi SSW 12.7 mph - N/A Rain Light Rain
1:35 PM 52.7 °F - 46.8 °F 80% 29.87 in 10.0 mi SSW 13.8 mph - N/A   Overcast
1:55 PM 52.7 °F - 47.3 °F 82% 29.87 in 10.0 mi SSW 12.7 mph - N/A Rain Light Rain
2:15 PM 52.7 °F - 47.3 °F 82% 29.87 in 10.0 mi South 11.5 mph - N/A   Overcast
2:35 PM 52.7 °F - 47.7 °F 83% 29.85 in 10.0 mi SSW 10.4 mph - N/A   Overcast
2:55 PM 52.7 °F - 47.7 °F 83% 29.84 in 10.0 mi South 8.1 mph - N/A   Overcast
3:15 PM 52.7 °F - 48.0 °F 84% 29.85 in 7.0 mi SSW 11.5 mph 17.3 mph N/A   Overcast
3:35 PM 52.7 °F - 48.2 °F 85% 29.85 in 5.0 mi SSW 10.4 mph - N/A   Haze
3:55 PM 52.7 °F - 48.6 °F 86% 29.85 in 3.0 mi South 9.2 mph - N/A   Overcast
4:15 PM 52.7 °F - 48.6 °F 86% 29.86 in 4.0 mi SSW 9.2 mph - N/A   Overcast
4:35 PM 53.6 °F - 49.5 °F 86% 29.87 in 7.0 mi SSW 8.1 mph - N/A   Overcast
4:55 PM 55.4 °F - 50.9 °F 85% 29.87 in 4.0 mi SSW 8.1 mph - N/A Rain Light Rain
5:15 PM 55.4 °F - 51.1 °F 85% 29.87 in 5.0 mi SSW 6.9 mph - N/A   Overcast
5:35 PM 55.4 °F - 51.1 °F 85% 29.86 in 7.0 mi SSW 8.1 mph - N/A   Overcast
5:55 PM 55.4 °F - 50.9 °F 85% 29.87 in 7.0 mi SSW 10.4 mph - N/A   Overcast
6:15 PM 55.4 °F - 50.9 °F 85% 29.87 in 7.0 mi South 9.2 mph - N/A Rain Light Rain
6:35 PM 55.4 °F - 50.9 °F 85% 29.87 in 7.0 mi SSW 10.4 mph - N/A   Overcast
6:55 PM 55.4 °F - 50.5 °F 84% 29.87 in 10.0 mi SSW 9.2 mph - N/A   Overcast
7:15 PM 55.8 °F - 50.9 °F 84% 29.87 in 10.0 mi SSW 9.2 mph - N/A   Overcast
7:35 PM 57.7 °F - 52.7 °F 83% 29.87 in 10.0 mi SSW 10.4 mph - N/A   Overcast
7:55 PM 57.7 °F - 52.7 °F 83% 29.87 in 10.0 mi SSW 11.5 mph - N/A   Overcast
8:15 PM 57.7 °F - 52.3 °F 82% 29.87 in 10.0 mi SSW 12.7 mph - N/A   Overcast
8:35 PM 57.7 °F - 52.2 °F 82% 29.85 in 10.0 mi South 11.5 mph - N/A   Overcast
8:55 PM 57.7 °F - 52.0 °F 81% 29.86 in 10.0 mi SSW 15.0 mph - N/A   Overcast
9:15 PM 58.1 °F - 52.0 °F 80% 29.85 in 10.0 mi SSW 10.4 mph - N/A   Overcast
9:35 PM 58.8 °F - 52.7 °F 80% 29.85 in 10.0 mi SSW 12.7 mph 17.3 mph N/A   Overcast
9:55 PM 59.0 °F - 52.7 °F 80% 29.85 in 10.0 mi SSW 13.8 mph 19.6 mph N/A   Overcast
10:15 PM 59.0 °F - 52.7 °F 80% 29.85 in 10.0 mi SSW 13.8 mph 19.6 mph N/A   Overcast
10:35 PM 59.0 °F - 52.7 °F 80% 29.84 in 10.0 mi SSW 12.7 mph 16.1 mph N/A   Overcast
10:55 PM 59.0 °F - 52.7 °F 80% 29.84 in 10.0 mi SSW 15.0 mph 20.7 mph N/A   Overcast
11:15 PM 59.0 °F - 52.7 °F 80% 29.84 in 10.0 mi SSW 12.7 mph 18.4 mph N/A   Overcast
11:35 PM 59.0 °F - 52.7 °F 80% 29.83 in 10.0 mi SSW 12.7 mph 18.4 mph N/A   Overcast
11:55 PM 59.0 °F - 52.7 °F 80% 29.83 in 10.0 mi SSW 15.0 mph - N/A   Overcast